Location: Ab? ar R?sh Ba?r?
(24.1861°N, 32.8847°E)
Time: 10:06:52
(UTC+00:00)

Hubble Space Telescope - Pass Details

Date: 24 October 2021
Orbit: 534 x 538 km, 28.5° (Epoch: 03 December)

Event Time Altitude Azimuth Distance (km) Brightness Sun altitude
Rises 16:09:31 0° 210° (SSW) 2,654 4.9 -13.2°
Reaches altitude 10° 16:12:36 10° 185° (S) 1,767 3.6 -13.9°
Maximum altitude 16:14:54 15° 151° (SSE) 1,496 2.8 -14.4°
Enters shadow 16:16:00 13° 133° (SE) 1,563 2.8 -14.7°
